Location: Newark
(34.3481°N, 134.0494°E)
Time: 21:57:12
(UTC+00:00)

Vanguard 3 - Pass Details

Date: 04 February 2020
Orbit: 508 x 3263 km, 33.3° (Epoch: 19 February)

Event Time Altitude Azimuth Distance (km) Brightness Sun altitude
Rises 03:54:43 0° 218° (SW) 4,901 11.9 38.5°
Reaches altitude 10° 03:57:38 10° 212° (SSW) 4,236 11.9 38.4°
Maximum altitude 04:09:22 47° 143° (SE) 3,220 11.1 37.8°
Drops below altitude 10° 04:26:46 10° 78° (ENE) 6,155 11.4 36.7°
Sets 04:32:03 0° 73° (ENE) 7,234 11.7 36.3°
